[[{"header":{"parameterUnit":"m.s-1","parameterCategory":1,"la1":30.2992,"la2":30.254,"lo1":-89.0895,"lo2":-89.0443,"dy":0.0025,"dx":0.0025,"nx":19,"ny":19,"refTime":"2026-04-20T09:00:00:Z","depth":0,"parameterNumber":2,"parameterNumberName":"U-component_of_WINDS"},"data":[0,0,0,-5.395,-5.3956,-5.4211,-5.4212,-5.4593,-5.4597,0,0,0,0,0,0,0,0,0,0,0,-5.3907,-5.391,-5.3949,-5.3957,-5.4211,-5.4212,-5.4593,-5.4597,0,0,0,0,0,0,0,0,0,0,0,-5.3905,-5.3909,-5.3914,-5.3958,-5.4211,-5.4212,-5.4592,-5.438,0,0,0,0,0,0,0,0,0,0,-5.4123,-5.4114,-5.3908,-5.3914,-5.396,-5.4211,-5.4212,-5.4369,-5.4393,-5.4501,0,-5.4604,0,-5.4607,-5.4626,-5.4628,0,0,0,-5.3933,-5.4095,-5.4134,-5.3915,-5.3962,-5.4211,-5.409,-5.4382,-5.441,-5.4534,-5.4609,-5.4622,-5.4614,-5.4629,-5.4631,-5.5327,-5.5332,0,0,-5.3919,-5.397,-5.4115,-5.4153,-5.4116,-5.4082,-5.4098,-5.4398,-5.4484,-5.4611,-5.463,-5.462,-5.4632,-5.4635,-5.5323,-5.5329,0,0,0,-5.3895,-5.3962,-5.3992,-5.4139,-5.4181,-5.409,-5.4108,-5.4471,-5.4476,-5.4634,-5.4624,-5.4634,-5.464,-5.5318,-5.5325,-5.5589,0,0,0,-5.3885,-5.3947,-5.3987,-5.4022,-5.4176,-5.4329,-5.4176,-5.4456,-5.4488,-5.4622,-5.4635,-5.4644,-5.5313,-5.5322,-5.5571,-5.5706,0,0,0,-5.3879,-5.3946,-5.3994,-5.4024,-5.4135,-5.4323,-5.4345,-5.4461,-5.4484,-5.4628,-5.4645,-5.531,-5.532,-5.5556,-5.568,-5.5903,0,0,0,-5.3888,-5.4226,-5.3999,-5.4373,-5.4133,-5.4484,-5.4342,-5.4601,-5.4756,-5.4637,-5.5314,-5.5325,-5.5551,-5.5664,-5.5887,-5.61,-5.6194,0,0,-5.4343,-5.4283,-5.4499,-5.4303,-5.4706,-5.4441,-5.4884,-5.4978,-5.4947,-5.5203,-5.5219,-5.5577,-5.5678,-5.59,-5.6702,-5.6777,0,0,0,-5.4661,-5.4817,-5.4912,-5.5062,-5.5141,-5.522,-5.5241,-5.5276,-5.549,-5.5088,-5.5717,-5.5775,-5.5903,-5.6003,-5.6067,-5.6173,-5.5373,-5.5372,-5.5371,-5.5379,-5.5318,-5.5671,-5.5641,-5.5788,-5.5805,-5.5919,-5.5969,-5.5866,-5.6016,-5.6092,-5.6586,-5.6705,-5.6752,-5.6864,-5.62,-5.6201,-5.6202,-5.6203,-5.604,-5.6251,-5.6104,-5.6394,-5.6328,-5.6571,-5.6602,-5.652,-5.6738,-5.6524,-5.6634,-5.6406,-5.6836,-5.6931,-5.6222,-5.6219,-5.6216,-5.6214,-5.6213,-5.6504,-5.6594,-5.6629,-5.6838,-5.7006,-5.6964,-5.7179,-5.7112,-5.705,-5.7159,-5.7231,-5.7227,-5.7213,-5.7198,-5.72,-5.7202,-5.7203,-5.7204,-5.7205,-5.697,-5.7001,-5.719,-5.7302,-5.7388,-5.7494,-5.7515,-5.7599,-5.7675,-5.7609,-5.7609,-5.7491,-5.689,-5.674,-5.7232,-5.7227,-5.7224,-5.7221,-5.7219,-5.7662,-5.7494,-5.7786,-5.7873,-5.7998,-5.817,-5.808,-5.8257,-5.8317,-5.8425,-5.8284,-5.785,-5.7784,-5.7733,-5.7608,-5.8296,-5.8296,-5.8296,-5.8296,-5.8053,-5.8012,-5.8294,-5.8437,-5.8569,-5.8518,-5.885,-5.8871,-5.8865,-5.8899,-5.8789,-5.8618,-5.8569,-5.8532,-5.8464,-5.8346,-5.9206,-5.9207,-5.9208,-5.8474,-5.8443,-5.8738,-5.8729,-5.8822,-5.8904,-5.9214,-5.9385,-5.9344,-5.9243,-5.8923,-5.8885,-5.8607,-5.8521,-5.8412,-5.8307,-5.8091,0,0]},{"header":{"parameterUnit":"m.s-1","parameterCategory":1,"la1":30.2992,"la2":30.254,"lo1":-89.0895,"lo2":-89.0443,"dy":0.0025,"dx":0.0025,"nx":19,"ny":19,"refTime":"2026-04-20T09:00:00:Z","depth":0,"parameterNumber":3,"parameterNumberName":"V-component_of_WINDS"},"data":[0,0,0,0.0186,0.0188,0.0244,0.0244,0.0342,0.0343,0,0,0,0,0,0,0,0,0,0,0,0.0183,0.0184,0.0186,0.0188,0.0244,0.0244,0.0342,0.0343,0,0,0,0,0,0,0,0,0,0,0,0.0182,0.0184,0.0185,0.0188,0.0244,0.0244,0.0341,0.029,0,0,0,0,0,0,0,0,0,0,0.0232,0.0241,0.0183,0.0185,0.0189,0.0244,0.0244,0.0288,0.0294,0.0327,0,0.0358,0,0.0352,0.0351,0.0351,0,0,0,0.0179,0.0236,0.0239,0.0185,0.0189,0.0244,0.0216,0.0291,0.0298,0.0335,0.0359,0.0362,0.0354,0.0352,0.0352,0.0571,0.0573,0,0,0.0176,0.02,0.0234,0.0244,0.0234,0.0214,0.0218,0.0294,0.0323,0.0359,0.0364,0.0355,0.0353,0.0353,0.057,0.0572,0,0,0,0.0173,0.0199,0.0199,0.024,0.0248,0.0216,0.022,0.0319,0.0317,0.0364,0.0356,0.0353,0.0355,0.0568,0.0571,0.0668,0,0,0,0.017,0.0197,0.0198,0.0214,0.0247,0.0284,0.0244,0.0312,0.032,0.0356,0.0353,0.0356,0.0567,0.0569,0.0662,0.0711,0,0,0,0.0175,0.0197,0.021,0.0216,0.024,0.0282,0.0284,0.0313,0.0316,0.0351,0.0356,0.0565,0.0569,0.0656,0.0702,0.0778,0,0,0,0.0187,0.0295,0.0212,0.0329,0.024,0.0341,0.0283,0.0357,0.04,0.0354,0.0567,0.057,0.0655,0.0696,0.0772,0.0849,0.0882,0,0,0.0337,0.0314,0.0381,0.0308,0.0431,0.033,0.0468,0.0483,0.0464,0.0537,0.0542,0.0664,0.0701,0.0777,0.1055,0.1082,0,0,0,0.0438,0.0487,0.0514,0.0554,0.0568,0.0586,0.0577,0.0583,0.0644,0.0506,0.071,0.0731,0.0775,0.0811,0.0833,0.0871,0.0587,0.0586,0.0586,0.0688,0.0657,0.0768,0.0745,0.0786,0.0777,0.0809,0.0816,0.0772,0.0822,0.0844,0.1016,0.1059,0.1076,0.1115,0.0879,0.088,0.088,0.088,0.0908,0.0974,0.0915,0.1002,0.097,0.1044,0.104,0.1008,0.1074,0.0996,0.1033,0.0954,0.1106,0.1139,0.0887,0.0886,0.0885,0.0885,0.0884,0.1071,0.1098,0.1102,0.116,0.1209,0.1182,0.1249,0.1216,0.1187,0.1224,0.1246,0.1244,0.1242,0.1236,0.1237,0.1237,0.1238,0.1238,0.1238,0.1239,0.1241,0.13,0.1325,0.1349,0.1376,0.137,0.1393,0.1411,0.1383,0.1383,0.1338,0.1125,0.1074,0.1248,0.1246,0.1245,0.1244,0.1243,0.1479,0.142,0.1511,0.1535,0.1563,0.1616,0.1573,0.1624,0.1639,0.1673,0.162,0.1467,0.1441,0.1423,0.1381,0.1624,0.1624,0.1624,0.1624,0.1619,0.1602,0.1689,0.173,0.1766,0.1738,0.1846,0.1843,0.1831,0.1839,0.1799,0.1739,0.1722,0.1707,0.1682,0.1643,0.1947,0.1947,0.1947,0.1766,0.1751,0.1848,0.1834,0.1855,0.1874,0.1976,0.2028,0.2001,0.196,0.1846,0.1832,0.1735,0.1705,0.1663,0.1626,0.1552,0,0]}]]